LEMUR 2 BASS

导读

LEMUR 2 BASS是美国Spire Global公司于2023年11月11日发射的第二代Lemur系列纳米卫星,属于6U型CubeSat立方星,运行在低地球轨道。它隶属于Spire的商业遥感星座,主要承担全球船舶AIS跟踪与气象监测任务,还可辅助检测GPS信号干扰,依托模块化设计和低成本优势为商业及政府用户提供地球观测数据服务。

Basic Information
目录编号:
58259
目录名称:
LEMUR 2 BASS
国际标识:
2023-174D
轨道中心:
EARTH
卫星名称:
LEMUR 2 BASS
卫星全名:
--
卫星状态:
在轨 (已飞行1029 天)
发射日期:
2023-11-11 UTC
国别 :
美国 (US)
星等 :
--
Orbit Information
数据来源 国际轨道数据
星历时间: 2026-09-05T13:34:26+0800
16小时前
查看轨道信息
半长轴: 6808.021km
偏心率: 0.0005503
轨道倾角: 97.381°
近地点辐角 230.237°
升交点赤经 334.189°
平近点角 129.839°
近地点: 426.137km
远地点: 433.631km
周期: 93.173分钟
每日圈数: 15.455089
Detailed Information
使用方式:
暂无
2D Orbit Map
3D Orbit Map
Orbit Altitude Analysis Chart
Orbit Inclination Analysis Chart
Orbit Comprehensive Analysis Chart
View Comprehensive Chart
Conjunction Data List
Event ID Objects TCA Miss Dist (km) Collision Risk Probability Collision Risk Index (CRI) Action
CDM_260905-201104-507105-825922
2026-09-05T
20:11:49+0000
2.353 km
极远距离
1.950855E-6 低风险 0.41